| time (UTC) | temp C | wind direction | speed KPH | gust KPH | rain 1hr cm | rain 24hr cm | rain mn cm | humidity % | barometer mb |
| 20260507030840 | 10 | 326 | 3.2 | 3.2 | 0.13 | 0.64 | 0.64 | 97 | 1006.4 |
| 20260507030338 | 11 | 320 | 4.8 | 4.8 | 0.30 | 0.64 | 0.64 | 97 | 1006.2 |
| 20260507025834 | 11 | 293 | 1.6 | 3.2 | 0.43 | 0.64 | 0.64 | 97 | 1006.2 |
| 20260507025332 | 11 | 307 | 1.6 | 1.6 | 0.48 | 0.58 | 0.58 | 97 | 1006.4 |
| 20260507024830 | 11 | 314 | 0.0 | 1.6 | 0.36 | 0.56 | 0.56 | 97 | 1006.5 |
| 20260507024327 | 11 | 288 | 3.2 | 3.2 | 0.00 | 0.51 | 0.51 | 97 | 1006.6 |
| 20260507023823 | 11 | 249 | 3.2 | 3.2 | 0.00 | 0.51 | 0.51 | 97 | 1006.3 |
| 20260507023319 | 11 | 332 | 1.6 | 3.2 | 0.13 | 0.51 | 0.51 | 97 | 1006.3 |
| 20260507022817 | 11 | 329 | 1.6 | 1.6 | 0.30 | 0.51 | 0.51 | 97 | 1006.1 |
| 20260507022313 | 12 | 309 | 1.6 | 1.6 | 0.18 | 0.48 | 0.48 | 97 | 1005.9 |
| 20260507021809 | 12 | 325 | 3.2 | 4.8 | 0.00 | 0.46 | 0.46 | 97 | 1006.0 |
| 20260507021305 | 12 | 304 | 1.6 | 3.2 | 0.00 | 0.46 | 0.46 | 97 | 1005.9 |
| 20260507020803 | 12 | 333 | 1.6 | 1.6 | 0.00 | 0.46 | 0.46 | 97 | 1005.8 |
| 20260507020259 | 12 | 310 | 1.6 | 1.6 | 0.00 | 0.46 | 0.46 | 97 | 1005.9 |
| 20260507015757 | 13 | 287 | 3.2 | 4.8 | 0.13 | 0.46 | 0.46 | 97 | 1005.7 |
| 20260507015254 | 13 | 323 | 0.0 | 1.6 | 0.13 | 0.46 | 0.46 | 96 | 1005.5 |
| 20260507014751 | 13 | 315 | 0.0 | 1.6 | 0.00 | 0.43 | 0.43 | 96 | 1005.5 |
| 20260507014247 | 13 | 328 | 3.2 | 3.2 | 0.00 | 0.43 | 0.43 | 96 | 1005.5 |
| 20260507013744 | 14 | 319 | 1.6 | 1.6 | 0.30 | 0.43 | 0.43 | 96 | 1005.2 |
| 20260507013241 | 14 | 312 | 1.6 | 1.6 | 0.79 | 0.43 | 0.43 | 96 | 1005.3 |
| 20260507012739 | 14 | 335 | 0.0 | 0.0 | 0.61 | 0.38 | 0.38 | 96 | 1005.2 |
| 20260507012234 | 14 | 337 | 0.0 | 1.6 | 0.30 | 0.33 | 0.33 | 96 | 1005.2 |
| 20260507011732 | 14 | 331 | 0.0 | 0.0 | 0.00 | 0.28 | 0.28 | 96 | 1005.0 |
| 20260507011228 | 14 | 337 | 0.0 | 0.0 | 0.00 | 0.28 | 0.28 | 96 | 1005.0 |
| 20260507010728 | 14 | 332 | 0.0 | 0.0 | 0.00 | 0.28 | 0.28 | 96 | 1005.0 |
| 20260507010224 | 14 | 337 | 0.0 | 0.0 | 0.00 | 0.28 | 0.28 | 96 | 1005.0 |
| 20260507005722 | 14 | 341 | 0.0 | 0.0 | 0.00 | 0.28 | 0.28 | 96 | 1005.1 |
| 20260507005218 | 14 | 334 | 0.0 | 0.0 | 0.00 | 0.28 | 0.28 | 96 | 1005.0 |
| 20260507004714 | 14 | 335 | 0.0 | 0.0 | 0.00 | 0.28 | 0.28 | 96 | 1005.1 |
| 20260507004212 | 14 | 332 | 0.0 | 0.0 | 0.00 | 0.28 | 0.28 | 96 | 1005.0 |
| 20260507003708 | 14 | 334 | 1.6 | 1.6 | 0.00 | 0.28 | 0.28 | 96 | 1005.0 |
| 20260507003203 | 14 | 22 | 3.2 | 4.8 | 0.00 | 0.28 | 0.28 | 96 | 1004.8 |
| 20260507002700 | 14 | 33 | 3.2 | 3.2 | 0.00 | 0.28 | 0.28 | 96 | 1004.7 |
| 20260507002156 | 14 | 335 | 0.0 | 0.0 | 0.00 | 0.28 | 0.28 | 96 | 1004.8 |
| 20260507001653 | 14 | 340 | 0.0 | 0.0 | 0.00 | 0.28 | 0.28 | 96 | 1004.7 |
| 20260507001150 | 14 | 333 | 1.6 | 1.6 | 0.00 | 0.28 | 0.28 | 96 | 1004.7 |
| 20260507000646 | 14 | 336 | 0.0 | 1.6 | 0.00 | 0.28 | 0.28 | 96 | 1004.8 |
| 20260507000142 | 14 | 336 | 0.0 | 0.0 | 0.00 | 0.28 | 0.28 | 96 | 1004.7 |
| 20260506235639 | 14 | 335 | 0.0 | 0.0 | 0.00 | 0.28 | 0.28 | 96 | 1004.7 |
| 20260506235140 | 14 | 343 | 0.0 | 0.0 | 0.00 | 0.28 | 0.28 | 96 | 1004.7 |
| 20260506234637 | 14 | 334 | 0.0 | 0.0 | 0.00 | 0.28 | 0.28 | 96 | 1004.6 |
| 20260506234134 | 14 | 332 | 1.6 | 1.6 | 0.00 | 0.28 | 0.28 | 96 | 1004.5 |
| 20260506233631 | 14 | 335 | 0.0 | 0.0 | 0.00 | 0.28 | 0.28 | 96 | 1004.4 |
| 20260506233128 | 14 | 331 | 0.0 | 1.6 | 0.00 | 0.28 | 0.28 | 95 | 1004.6 |
| 20260506232624 | 14 | 337 | 0.0 | 1.6 | 0.00 | 0.28 | 0.28 | 95 | 1004.4 |
| 20260506232120 | 14 | 333 | 1.6 | 1.6 | 0.00 | 0.28 | 0.28 | 95 | 1004.7 |
| 20260506231617 | 14 | 335 | 1.6 | 1.6 | 0.00 | 0.28 | 0.28 | 95 | 1004.6 |
| 20260506231115 | 14 | 331 | 1.6 | 3.2 | 0.00 | 0.28 | 0.28 | 95 | 1004.7 |
| 20260506230612 | 14 | 356 | 0.0 | 1.6 | 0.00 | 0.28 | 0.28 | 95 | 1004.4 |
| 20260506230109 | 14 | 337 | 1.6 | 1.6 | 0.00 | 0.28 | 0.28 | 95 | 1004.5 |
| 20260506225605 | 14 | 343 | 0.0 | 1.6 | 0.00 | 0.28 | 0.28 | 95 | 1004.9 |
| 20260506225102 | 14 | 164 | 3.2 | 4.8 | 0.00 | 0.28 | 0.28 | 95 | 1004.8 |
| 20260506224559 | 14 | 325 | 1.6 | 3.2 | 0.00 | 0.28 | 0.28 | 95 | 1004.7 |
| 20260506224055 | 14 | 334 | 0.0 | 0.0 | 0.00 | 0.28 | 0.28 | 95 | 1004.6 |
| 20260506223551 | 14 | 335 | 0.0 | 1.6 | 0.00 | 0.28 | 0.28 | 95 | 1004.8 |
| 20260506223048 | 14 | 330 | 1.6 | 3.2 | 0.00 | 0.28 | 0.28 | 95 | 1004.8 |
| 20260506222545 | 14 | 302 | 1.6 | 3.2 | 0.00 | 0.28 | 0.28 | 95 | 1004.8 |
| 20260506222041 | 14 | 333 | 0.0 | 1.6 | 0.00 | 0.28 | 0.28 | 95 | 1004.8 |
| 20260506221539 | 15 | 341 | 0.0 | 0.0 | 0.00 | 0.28 | 0.28 | 95 | 1005.0 |
| 20260506221037 | 15 | 356 | 1.6 | 3.2 | 0.00 | 0.28 | 0.28 | 95 | 1004.9 |
| 20260506220532 | 15 | 317 | 0.0 | 0.0 | 0.00 | 0.28 | 0.28 | 95 | 1004.9 |
| 20260506220028 | 15 | 332 | 0.0 | 0.0 | 0.00 | 0.28 | 0.28 | 95 | 1004.9 |
| 20260506215525 | 15 | 10 | 0.0 | 1.6 | 0.00 | 0.28 | 0.28 | 95 | 1005.0 |
| 20260506215020 | 15 | 327 | 1.6 | 1.6 | 0.00 | 0.28 | 0.28 | 95 | 1005.0 |
| 20260506214518 | 15 | 339 | 0.0 | 0.0 | 0.00 | 0.28 | 0.28 | 95 | 1005.0 |
| 20260506214015 | 15 | 330 | 1.6 | 1.6 | 0.00 | 0.28 | 0.28 | 95 | 1005.0 |
| 20260506213513 | 15 | 336 | 3.2 | 3.2 | 0.00 | 0.28 | 0.28 | 95 | 1004.9 |
| 20260506213010 | 15 | 326 | 0.0 | 1.6 | 0.00 | 0.28 | 0.28 | 95 | 1005.0 |
| 20260506212506 | 15 | 345 | 1.6 | 1.6 | 0.18 | 0.28 | 0.28 | 95 | 1005.0 |
| 20260506212001 | 15 | 338 | 1.6 | 3.2 | 0.18 | 0.28 | 0.28 | 95 | 1005.2 |
| 20260506211457 | 15 | 338 | 1.6 | 1.6 | 0.18 | 0.28 | 0.28 | 95 | 1005.2 |
| 20260506210955 | 15 | 326 | 1.6 | 1.6 | 0.00 | 0.25 | 0.25 | 95 | 1005.3 |
| 20260506210451 | 15 | 314 | 3.2 | 3.2 | 0.00 | 0.25 | 0.25 | 95 | 1005.2 |
| 20260506205948 | 15 | 356 | 1.6 | 1.6 | 0.00 | 0.25 | 0.25 | 95 | 1005.0 |
| 20260506205444 | 15 | 119 | 6.4 | 9.7 | 0.00 | 0.25 | 0.25 | 95 | 1005.2 |
| 20260506204940 | 15 | 215 | 3.2 | 3.2 | 0.00 | 0.25 | 0.25 | 95 | 1005.3 |
| 20260506204438 | 15 | 321 | 3.2 | 3.2 | 0.00 | 0.25 | 0.25 | 95 | 1005.4 |
| 20260506203935 | 15 | 345 | 1.6 | 3.2 | 0.18 | 0.25 | 0.25 | 95 | 1005.1 |
| 20260506203433 | 15 | 342 | 1.6 | 1.6 | 0.18 | 0.25 | 0.25 | 95 | 1005.3 |
| 20260506202929 | 15 | 26 | 3.2 | 3.2 | 0.18 | 0.25 | 0.25 | 95 | 1005.4 |
| 20260506202427 | 15 | 352 | 8.0 | 11.3 | 0.13 | 0.23 | 0.23 | 94 | 1005.6 |
| 20260506201923 | 15 | 342 | 1.6 | 1.6 | 0.13 | 0.23 | 0.23 | 94 | 1005.4 |
| 20260506201421 | 15 | 318 | 3.2 | 3.2 | 0.00 | 0.20 | 0.20 | 94 | 1005.6 |
| 20260506200917 | 15 | 268 | 1.6 | 1.6 | 0.18 | 0.20 | 0.20 | 94 | 1005.6 |
| 20260506200413 | 15 | 347 | 1.6 | 3.2 | 0.18 | 0.20 | 0.20 | 94 | 1005.6 |
| 20260506195910 | 15 | 335 | 0.0 | 1.6 | 0.00 | 0.18 | 0.18 | 94 | 1005.4 |
| 20260506195407 | 15 | 29 | 1.6 | 1.6 | 0.13 | 0.18 | 0.18 | 94 | 1005.7 |
| 20260506194904 | 15 | 28 | 3.2 | 3.2 | 0.13 | 0.18 | 0.18 | 93 | 1005.9 |
| 20260506194401 | 15 | 335 | 0.0 | 0.0 | 0.00 | 0.15 | 0.15 | 93 | 1005.8 |
| 20260506193858 | 15 | 334 | 3.2 | 3.2 | 0.00 | 0.15 | 0.15 | 93 | 1005.8 |
| 20260506193355 | 15 | 319 | 3.2 | 3.2 | 0.00 | 0.15 | 0.15 | 93 | 1005.9 |
| 20260506192851 | 15 | 353 | 1.6 | 3.2 | 0.18 | 0.15 | 0.15 | 92 | 1006.1 |
| 20260506192348 | 15 | 277 | 3.2 | 3.2 | 0.18 | 0.15 | 0.15 | 92 | 1006.0 |
| 20260506191845 | 16 | 41 | 3.2 | 3.2 | 0.00 | 0.13 | 0.13 | 92 | 1005.7 |
| 20260506191341 | 15 | 339 | 1.6 | 1.6 | 0.00 | 0.13 | 0.13 | 92 | 1005.7 |
| 20260506190838 | 16 | 329 | 1.6 | 1.6 | 0.00 | 0.13 | 0.13 | 93 | 1005.7 |
| 20260506190334 | 16 | 332 | 0.0 | 0.0 | 0.00 | 0.13 | 0.13 | 93 | 1005.5 |
| 20260506185831 | 15 | 335 | 0.0 | 0.0 | 0.00 | 0.13 | 0.13 | 93 | 1005.6 |
| 20260506185328 | 15 | 344 | 0.0 | 0.0 | 0.00 | 0.13 | 0.13 | 93 | 1005.9 |
| 20260506184825 | 16 | 343 | 0.0 | 0.0 | 0.00 | 0.13 | 0.13 | 93 | 1005.8 |
| 20260506184323 | 16 | 334 | 0.0 | 0.0 | 0.00 | 0.13 | 0.13 | 94 | 1006.4 |
| 20260506183820 | 16 | 334 | 0.0 | 0.0 | 0.00 | 0.13 | 0.13 | 93 | 1006.2 |
| 20260506183315 | 16 | 339 | 0.0 | 1.6 | 0.00 | 0.13 | 0.13 | 93 | 1006.3 |
| 20260506182812 | 15 | 339 | 0.0 | 0.0 | 0.00 | 0.13 | 0.13 | 93 | 1006.5 |
| 20260506182310 | 16 | 342 | 0.0 | 0.0 | 0.13 | 0.13 | 0.13 | 93 | 1006.6 |
| 20260506181808 | 16 | 329 | 0.0 | 0.0 | 0.13 | 0.13 | 0.13 | 93 | 1007.0 |
| 20260506181305 | 16 | 334 | 1.6 | 1.6 | 0.00 | 0.10 | 0.10 | 93 | 1006.7 |
| 20260506180802 | 16 | 334 | 0.0 | 0.0 | 0.18 | 0.10 | 0.10 | 92 | 1006.7 |
| 20260506180257 | 16 | 334 | 0.0 | 0.0 | 0.30 | 0.10 | 0.10 | 92 | 1006.8 |
| 20260506175754 | 16 | 337 | 1.6 | 1.6 | 0.30 | 0.08 | 0.08 | 92 | 1007.0 |
| 20260506175251 | 16 | 330 | 0.0 | 0.0 | 0.18 | 0.05 | 0.05 | 91 | 1007.0 |
| 20260506174749 | 16 | 336 | 0.0 | 0.0 | 0.13 | 0.03 | 0.03 | 90 | 1007.0 |
| 20260506174245 | 16 | 311 | 1.6 | 1.6 | 0.13 | 0.03 | 0.03 | 89 | 1007.1 |
| 20260506173743 | 16 | 341 | 1.6 | 1.6 | 0.00 | 0.00 | 0.00 | 88 | 1007.1 |
| 20260506173240 | 17 | 307 | 1.6 | 3.2 | 0.00 | 0.00 | 0.00 | 85 | 1007.1 |
| 20260506172737 | 17 | 322 | 1.6 | 1.6 | 0.00 | 0.00 | 0.00 | 81 | 1007.2 |
| 20260506172233 | 18 | 338 | 3.2 | 3.2 | 0.00 | 0.00 | 0.00 | 79 | 1007.0 |
| 20260506171731 | 18 | 296 | 1.6 | 3.2 | 0.00 | 0.00 | 0.00 | 75 | 1006.9 |
| 20260506171228 | 18 | 139 | 3.2 | 8.0 | 0.00 | 0.00 | 0.00 | 73 | 1007.0 |
| 20260506170726 | 19 | 125 | 4.8 | 8.0 | 0.00 | 0.00 | 0.00 | 71 | 1006.9 |
| 20260506170222 | 19 | 334 | 3.2 | 3.2 | 0.00 | 0.00 | 0.00 | 70 | 1006.7 |
| 20260506165720 | 20 | 227 | 4.8 | 8.0 | 0.00 | 0.00 | 0.00 | 69 | 1007.1 |
| 20260506165217 | 20 | 240 | 4.8 | 8.0 | 0.00 | 0.00 | 0.00 | 68 | 1006.8 |
| 20260506164714 | 20 | 170 | 4.8 | 8.0 | 0.00 | 0.00 | 0.00 | 68 | 1006.8 |
| 20260506164211 | 20 | 261 | 4.8 | 8.0 | 0.00 | 0.00 | 0.00 | 67 | 1007.1 |
| 20260506163708 | 20 | 187 | 4.8 | 8.0 | 0.00 | 0.00 | 0.00 | 68 | 1006.7 |
| 20260506163203 | 20 | 73 | 3.2 | 3.2 | 0.00 | 0.00 | 0.00 | 68 | 1007.0 |
| 20260506162659 | 20 | 292 | 1.6 | 3.2 | 0.00 | 0.00 | 0.00 | 69 | 1006.9 |
| 20260506162157 | 20 | 321 | 3.2 | 4.8 | 0.00 | 0.00 | 0.00 | 69 | 1006.8 |
| 20260506161654 | 20 | 336 | 3.2 | 3.2 | 0.00 | 0.00 | 0.00 | 72 | 1007.1 |
| 20260506161150 | 20 | 307 | 1.6 | 3.2 | 0.00 | 0.00 | 0.00 | 72 | 1007.5 |
| 20260506160648 | 20 | 356 | 3.2 | 3.2 | 0.00 | 0.00 | 0.00 | 71 | 1007.2 |
| 20260506160145 | 20 | 332 | 0.0 | 1.6 | 0.00 | 0.00 | 0.00 | 71 | 1007.4 |
| 20260506155644 | 20 | 332 | 1.6 | 1.6 | 0.00 | 0.00 | 0.00 | 71 | 1007.5 |
| 20260506155140 | 19 | 3 | 3.2 | 3.2 | 0.00 | 0.00 | 0.00 | 72 | 1008.0 |
| 20260506153242 | 19 | 301 | 3.2 | 3.2 | 0.00 | 0.00 | 0.00 | 73 | 1007.7 |
| 20260506152739 | 19 | 346 | 0.0 | 1.6 | 0.00 | 0.00 | 0.00 | 72 | 1008.1 |
| 20260506152237 | 19 | 35 | 3.2 | 3.2 | 0.00 | 0.00 | 0.00 | 72 | 1008.1 |
| 20260506151736 | 19 | 335 | 0.0 | 1.6 | 0.00 | 0.00 | 0.00 | 73 | 1008.3 |
| 20260506151232 | 20 | 275 | 4.8 | 8.0 | 0.00 | 0.00 | 0.00 | 72 | 1008.3 |
| 20260506150728 | 20 | 352 | 3.2 | 3.2 | 0.00 | 0.00 | 0.00 | 71 | 1008.2 |
| 20260506150225 | 20 | 1 | 3.2 | 4.8 | 0.00 | 0.00 | 0.00 | 70 | 1008.4 |
| 20260506145722 | 20 | 322 | 1.6 | 1.6 | 0.00 | 0.00 | 0.00 | 70 | 1008.2 |
| 20260506145219 | 20 | 229 | 4.8 | 4.8 | 0.00 | 0.00 | 0.00 | 71 | 1008.0 |
| 20260506144716 | 19 | 309 | 4.8 | 4.8 | 0.00 | 0.00 | 0.00 | 73 | 1008.0 |
| 20260506144213 | 19 | 329 | 1.6 | 1.6 | 0.00 | 0.00 | 0.00 | 73 | 1008.3 |
| 20260506143711 | 20 | 115 | 1.6 | 3.2 | 0.00 | 0.00 | 0.00 | 73 | 1008.0 |
| 20260506143208 | 20 | 323 | 0.0 | 1.6 | 0.00 | 0.00 | 0.00 | 72 | 1008.2 |
| 20260506142707 | 20 | 222 | 3.2 | 3.2 | 0.00 | 0.00 | 0.00 | 72 | 1008.0 |
| 20260506142204 | 19 | 292 | 1.6 | 4.8 | 0.00 | 0.00 | 0.00 | 73 | 1008.1 |
| 20260506141702 | 19 | 322 | 1.6 | 1.6 | 0.00 | 0.00 | 0.00 | 74 | 1007.8 |
| 20260506141200 | 18 | 332 | 3.2 | 3.2 | 0.00 | 0.00 | 0.00 | 75 | 1008.1 |
| 20260506140657 | 18 | 2 | 3.2 | 3.2 | 0.00 | 0.00 | 0.00 | 76 | 1008.0 |
| 20260506140154 | 18 | 336 | 1.6 | 3.2 | 0.00 | 0.00 | 0.00 | 77 | 1008.0 |
| 20260506135651 | 17 | 78 | 4.8 | 4.8 | 0.00 | 0.00 | 0.00 | 78 | 1007.7 |
| 20260506135147 | 17 | 324 | 0.0 | 1.6 | 0.00 | 0.00 | 0.00 | 79 | 1008.1 |
| 20260506134644 | 17 | 330 | 0.0 | 0.0 | 0.00 | 0.00 | 0.00 | 79 | 1008.0 |
| 20260506134140 | 18 | 356 | 3.2 | 3.2 | 0.00 | 0.00 | 0.00 | 78 | 1008.1 |
| 20260506133637 | 17 | 340 | 3.2 | 3.2 | 0.00 | 0.00 | 0.00 | 79 | 1008.3 |
| 20260506133134 | 17 | 325 | 3.2 | 3.2 | 0.00 | 0.00 | 0.00 | 79 | 1008.4 |
| 20260506132632 | 17 | 0 | 3.2 | 3.2 | 0.00 | 0.00 | 0.00 | 79 | 1008.2 |
| 20260506132128 | 17 | 337 | 0.0 | 1.6 | 0.00 | 0.00 | 0.00 | 80 | 1008.3 |
| 20260506131626 | 17 | 339 | 1.6 | 1.6 | 0.00 | 0.00 | 0.00 | 80 | 1008.4 |
| 20260506131122 | 17 | 339 | 0.0 | 1.6 | 0.00 | 0.00 | 0.00 | 81 | 1008.5 |
| 20260506130619 | 16 | 355 | 1.6 | 1.6 | 0.00 | 0.00 | 0.00 | 81 | 1008.5 |
| 20260506130116 | 16 | 347 | 1.6 | 3.2 | 0.00 | 0.00 | 0.00 | 81 | 1008.3 |
| 20260506125615 | 16 | 336 | 0.0 | 0.0 | 0.00 | 0.00 | 0.00 | 81 | 1008.4 |
| 20260506125112 | 16 | 29 | 3.2 | 3.2 | 0.00 | 0.00 | 0.00 | 82 | 1008.4 |
| 20260506124609 | 16 | 1 | 1.6 | 1.6 | 0.00 | 0.00 | 0.00 | 82 | 1008.6 |
| 20260506124107 | 16 | 331 | 0.0 | 1.6 | 0.00 | 0.00 | 0.00 | 82 | 1008.6 |
| 20260506123604 | 16 | 336 | 0.0 | 1.6 | 0.00 | 0.00 | 0.00 | 82 | 1008.6 |
| 20260506123103 | 16 | 340 | 1.6 | 1.6 | 0.00 | 0.00 | 0.00 | 83 | 1008.6 |
| 20260506122559 | 15 | 336 | 0.0 | 1.6 | 0.00 | 0.00 | 0.00 | 83 | 1008.4 |
| 20260506122057 | 15 | 329 | 1.6 | 3.2 | 0.00 | 0.00 | 0.00 | 84 | 1008.4 |
| 20260506121555 | 15 | 334 | 0.0 | 0.0 | 0.00 | 0.00 | 0.00 | 84 | 1008.5 |
| 20260506121051 | 15 | 3 | 0.0 | 1.6 | 0.00 | 0.00 | 0.00 | 84 | 1008.4 |
| 20260506120549 | 15 | 334 | 0.0 | 0.0 | 0.00 | 0.00 | 0.00 | 84 | 1008.6 |
| 20260506120046 | 15 | 333 | 0.0 | 0.0 | 0.00 | 0.00 | 0.00 | 83 | 1008.8 |
| 20260506115544 | 15 | 332 | 0.0 | 0.0 | 0.00 | 0.00 | 0.00 | 84 | 1008.7 |
| 20260506115042 | 15 | 336 | 0.0 | 1.6 | 0.00 | 0.00 | 0.00 | 84 | 1008.9 |
| 20260506114539 | 15 | 329 | 1.6 | 3.2 | 0.00 | 0.00 | 0.00 | 85 | 1008.8 |
| 20260506114037 | 15 | 335 | 0.0 | 0.0 | 0.00 | 0.00 | 0.00 | 86 | 1008.9 |
| 20260506113535 | 15 | 348 | 1.6 | 1.6 | 0.00 | 0.00 | 0.00 | 86 | 1008.9 |
| 20260506113032 | 15 | 323 | 0.0 | 1.6 | 0.00 | 0.00 | 0.00 | 85 | 1008.9 |
| 20260506112528 | 15 | 327 | 1.6 | 1.6 | 0.00 | 0.00 | 0.00 | 85 | 1009.0 |
| 20260506112026 | 15 | 334 | 1.6 | 1.6 | 0.00 | 0.00 | 0.00 | 85 | 1008.9 |
| 20260506111524 | 15 | 344 | 0.0 | 1.6 | 0.00 | 0.00 | 0.00 | 85 | 1009.0 |
| 20260506111021 | 15 | 336 | 0.0 | 1.6 | 0.00 | 0.00 | 0.00 | 85 | 1009.0 |
| 20260506110519 | 14 | 332 | 0.0 | 0.0 | 0.00 | 0.00 | 0.00 | 86 | 1008.7 |
| 20260506110016 | 14 | 333 | 0.0 | 0.0 | 0.00 | 0.00 | 0.00 | 86 | 1008.9 |
| 20260506105511 | 14 | 333 | 1.6 | 1.6 | 0.00 | 0.00 | 0.00 | 86 | 1009.0 |
| 20260506105009 | 13 | 333 | 0.0 | 0.0 | 0.00 | 0.00 | 0.00 | 86 | 1008.7 |
| 20260506104507 | 13 | 333 | 1.6 | 1.6 | 0.00 | 0.00 | 0.00 | 87 | 1009.0 |
| 20260506104005 | 13 | 337 | 1.6 | 1.6 | 0.00 | 0.00 | 0.00 | 87 | 1009.0 |
| 20260506103501 | 13 | 335 | 0.0 | 1.6 | 0.00 | 0.00 | 0.00 | 87 | 1008.9 |
| 20260506102958 | 13 | 341 | 1.6 | 1.6 | 0.00 | 0.00 | 0.00 | 87 | 1009.1 |
| 20260506102456 | 13 | 336 | 1.6 | 1.6 | 0.00 | 0.00 | 0.00 | 86 | 1008.9 |
| 20260506101954 | 13 | 333 | 0.0 | 0.0 | 0.00 | 0.00 | 0.00 | 86 | 1008.7 |
| 20260506101450 | 13 | 342 | 0.0 | 0.0 | 0.00 | 0.00 | 0.00 | 86 | 1008.8 |
| 20260506100947 | 13 | 335 | 1.6 | 1.6 | 0.00 | 0.00 | 0.00 | 86 | 1008.8 |
| 20260506100446 | 13 | 345 | 0.0 | 1.6 | 0.00 | 0.00 | 0.00 | 86 | 1008.9 |
| 20260506095943 | 13 | 342 | 0.0 | 0.0 | 0.00 | 0.00 | 0.00 | 86 | 1008.9 |
| 20260506095441 | 13 | 335 | 0.0 | 0.0 | 0.00 | 0.00 | 0.00 | 86 | 1008.8 |
| 20260506094937 | 13 | 324 | 0.0 | 1.6 | 0.00 | 0.00 | 0.00 | 86 | 1008.9 |
| 20260506094436 | 13 | 338 | 0.0 | 0.0 | 0.00 | 0.00 | 0.00 | 86 | 1008.8 |
| 20260506093933 | 13 | 332 | 0.0 | 0.0 | 0.00 | 0.00 | 0.00 | 86 | 1008.9 |
| 20260506093431 | 13 | 337 | 0.0 | 0.0 | 0.00 | 0.00 | 0.00 | 87 | 1008.8 |
| 20260506092929 | 12 | 326 | 0.0 | 0.0 | 0.00 | 0.00 | 0.00 | 86 | 1008.8 |
| 20260506092426 | 12 | 341 | 0.0 | 0.0 | 0.00 | 0.00 | 0.00 | 86 | 1008.8 |
| 20260506091923 | 12 | 337 | 0.0 | 0.0 | 0.00 | 0.00 | 0.00 | 87 | 1008.6 |
| 20260506091421 | 12 | 337 | 0.0 | 0.0 | 0.00 | 0.00 | 0.00 | 86 | 1008.6 |
| 20260506090918 | 13 | 337 | 0.0 | 0.0 | 0.00 | 0.00 | 0.00 | 86 | 1008.9 |
| 20260506090415 | 13 | 337 | 0.0 | 0.0 | 0.00 | 0.00 | 0.00 | 85 | 1008.5 |
| 20260506085912 | 13 | 337 | 0.0 | 0.0 | 0.00 | 0.00 | 0.00 | 84 | 1008.7 |
| 20260506085409 | 13 | 337 | 0.0 | 0.0 | 0.00 | 0.00 | 0.00 | 84 | 1008.7 |
| 20260506084905 | 13 | 337 | 0.0 | 0.0 | 0.00 | 0.00 | 0.00 | 83 | 1008.9 |
| 20260506084402 | 13 | 337 | 0.0 | 1.6 | 0.00 | 0.00 | 0.00 | 82 | 1008.7 |
| 20260506083858 | 14 | 337 | 0.0 | 0.0 | 0.00 | 0.00 | 0.00 | 80 | 1008.8 |
| 20260506083356 | 14 | 337 | 0.0 | 0.0 | 0.00 | 0.00 | 0.00 | 80 | 1008.8 |
| 20260506082853 | 15 | 348 | 1.6 | 1.6 | 0.00 | 0.00 | 0.00 | 79 | 1008.9 |
| 20260506082350 | 15 | 333 | 0.0 | 0.0 | 0.00 | 0.00 | 0.00 | 77 | 1008.8 |
| 20260506081845 | 15 | 335 | 0.0 | 0.0 | 0.00 | 0.00 | 0.00 | 76 | 1009.0 |
| 20260506081344 | 15 | 341 | 1.6 | 1.6 | 0.00 | 0.00 | 0.00 | 76 | 1008.9 |
| 20260506080841 | 15 | 339 | 0.0 | 0.0 | 0.00 | 0.00 | 0.00 | 76 | 1008.7 |
| 20260506080338 | 15 | 333 | 0.0 | 0.0 | 0.00 | 0.00 | 0.00 | 75 | 1008.8 |
| 20260506073322 | 16 | 335 | 0.0 | 0.0 | 0.00 | 0.00 | 0.00 | 73 | 1008.9 |
| 20260506072818 | 16 | 335 | 1.6 | 1.6 | 0.00 | 0.00 | 0.00 | 73 | 1008.8 |
| 20260506072316 | 16 | 330 | 0.0 | 1.6 | 0.00 | 0.00 | 0.00 | 72 | 1008.6 |
| 20260506071814 | 16 | 331 | 1.6 | 1.6 | 0.00 | 0.00 | 0.00 | 72 | 1008.8 |
| 20260506071312 | 16 | 334 | 0.0 | 1.6 | 0.00 | 0.00 | 0.00 | 72 | 1008.8 |
| 20260506070808 | 16 | 332 | 0.0 | 0.0 | 0.00 | 0.00 | 0.00 | 72 | 1008.8 |
| 20260506070305 | 16 | 329 | 0.0 | 1.6 | 0.00 | 0.00 | 0.00 | 72 | 1008.5 |
| 20260506062242 | 16 | 350 | 1.6 | 1.6 | 0.00 | 0.00 | 0.00 | 69 | 1008.5 |
| 20260506061738 | 16 | 355 | 1.6 | 1.6 | 0.00 | 0.00 | 0.00 | 70 | 1008.6 |
| 20260506061236 | 16 | 325 | 1.6 | 1.6 | 0.00 | 0.00 | 0.00 | 70 | 1008.5 |
| 20260506060734 | 16 | 330 | 0.0 | 0.0 | 0.00 | 0.00 | 0.00 | 70 | 1008.4 |
| 20260506060231 | 16 | 330 | 0.0 | 0.0 | 0.00 | 0.00 | 0.00 | 69 | 1008.4 |
| 20260506051203 | 16 | 337 | 0.0 | 1.6 | 0.00 | 0.00 | 0.00 | 69 | 1008.5 |
| 20260506050701 | 17 | 340 | 1.6 | 1.6 | 0.00 | 0.00 | 0.00 | 68 | 1008.5 |
| 20260506050158 | 17 | 339 | 0.0 | 1.6 | 0.00 | 0.00 | 0.00 | 68 | 1008.7 |
| 20260506044649 | 16 | 330 | 1.6 | 1.6 | 0.00 | 0.00 | 0.00 | 69 | 1008.7 |
| 20260506044145 | 17 | 329 | 0.0 | 1.6 | 0.00 | 0.00 | 0.00 | 69 | 1008.8 |
| 20260506043643 | 17 | 337 | 0.0 | 1.6 | 0.00 | 0.00 | 0.00 | 68 | 1008.7 |
| 20260506043141 | 17 | 332 | 0.0 | 1.6 | 0.00 | 0.00 | 0.00 | 66 | 1008.8 |
| 20260506042640 | 17 | 343 | 0.0 | 1.6 | 0.00 | 0.00 | 0.00 | 65 | 1009.0 |
| 20260506042137 | 17 | 353 | 1.6 | 3.2 | 0.00 | 0.00 | 0.00 | 65 | 1008.6 |
| 20260506041635 | 17 | 334 | 0.0 | 0.0 | 0.00 | 0.00 | 0.00 | 65 | 1008.8 |
| 20260506041132 | 18 | 341 | 1.6 | 1.6 | 0.00 | 0.00 | 0.00 | 65 | 1008.7 |
| 20260506040630 | 18 | 327 | 1.6 | 1.6 | 0.00 | 0.00 | 0.00 | 64 | 1008.7 |
| 20260506040126 | 18 | 330 | 1.6 | 1.6 | 0.00 | 0.00 | 0.00 | 63 | 1008.8 |
| 20260506035623 | 18 | 287 | 1.6 | 3.2 | 0.00 | 0.00 | 0.00 | 63 | 1008.9 |
| 20260506035120 | 18 | 342 | 1.6 | 1.6 | 0.00 | 0.00 | 0.00 | 63 | 1008.8 |
| 20260506034617 | 18 | 333 | 1.6 | 1.6 | 0.00 | 0.00 | 0.00 | 63 | 1008.8 |
| 20260506034114 | 18 | 336 | 0.0 | 0.0 | 0.00 | 0.00 | 0.00 | 63 | 1008.9 |
| 20260506033611 | 18 | 342 | 0.0 | 1.6 | 0.00 | 0.00 | 0.00 | 63 | 1008.6 |
| 20260506033108 | 18 | 351 | 1.6 | 3.2 | 0.00 | 0.00 | 0.00 | 62 | 1008.6 |
| 20260506032606 | 18 | 322 | 1.6 | 3.2 | 0.00 | 0.00 | 0.00 | 61 | 1008.7 |
| 20260506032102 | 19 | 332 | 1.6 | 1.6 | 0.00 | 0.00 | 0.00 | 63 | 1008.7 |
| 20260506031559 | 18 | 21 | 1.6 | 1.6 | 0.00 | 0.00 | 0.00 | 61 | 1008.6 |